When you browse on this site, cookies collect data to enhance your experience and personalize the content and advertising you see.
Visit our Privacy Policy to learn more. By continuing to use the site, you agree to this use of cookies and data.
  • In United Kingdom
  • List of Countries
  • For 7 days
  • Water Temperature
  • Weather Map
  • Weather Widgets
  • user-avatar
    Login

    Hourly Weather Mochudi

    Today, 21 January, Tuesday

    Time Temperature Precipitation Wind Pressure Humidity
    00:00 +23°C° 0 mm 4 mps 680 mmHg 62%
    01:00 +23°C° 0 mm 4 mps 680 mmHg 67%
    02:00 +22°C° 0 mm 3 mps 680 mmHg 71%
    03:00 +21°C° 0 mm 3 mps 680 mmHg 74%
    04:00 +21°C° 0 mm 3 mps 680 mmHg 76%
    05:00 +20°C° 0 mm 3 mps 680 mmHg 78%
    06:00 +21°C° 0 mm 3 mps 680 mmHg 76%
    07:00 +21°C° 0 mm 3 mps 681 mmHg 73%
    08:00 +22°C° 0 mm 3 mps 681 mmHg 70%
    09:00 +25°C° 0 mm 3 mps 681 mmHg 63%
    10:00 +27°C° 0 mm 3 mps 682 mmHg 56%
    11:00 +29°C° 0 mm 3 mps 682 mmHg 49%
    12:00 +31°C° 0 mm 2 mps 681 mmHg 43%
    13:00 +34°C° 0 mm 2 mps 681 mmHg 38%
    14:00 +34°C° 0 mm 1 mps 681 mmHg 32%
    15:00 +35°C° 0 mm 1 mps 680 mmHg 31%
    16:00 +35°C° 0 mm 1 mps 679 mmHg 29%
    17:00 +35°C° 0 mm 1 mps 679 mmHg 28%
    18:00 +34°C° 0 mm 2 mps 679 mmHg 32%
    19:00 +32°C° 0 mm 2 mps 679 mmHg 36%
    20:00 +30°C° 0 mm 3 mps 678 mmHg 40%
    21:00 +29°C° 0 mm 2 mps 679 mmHg 43%
    22:00 +28°C° 0 mm 2 mps 679 mmHg 47%
    23:00 +27°C° 0 mm 2 mps 679 mmHg 50%

    Tomorrow, 22 January, Wednesday

    Time Temperature Precipitation Wind Pressure Humidity
    00:00 +27°C° 0 mm 2 mps 679 mmHg 50%
    01:00 +27°C° 0 mm 3 mps 678 mmHg 50%
    02:00 +27°C° 0 mm 3 mps 678 mmHg 50%
    03:00 +27°C° 0 mm 3 mps 678 mmHg 52%
    04:00 +26°C° 0 mm 3 mps 678 mmHg 53%
    05:00 +25°C° 0 mm 3 mps 678 mmHg 55%
    06:00 +25°C° 0 mm 3 mps 679 mmHg 54%
    07:00 +26°C° 0 mm 4 mps 679 mmHg 53%
    08:00 +26°C° 0 mm 4 mps 679 mmHg 52%
    09:00 +28°C° 0 mm 4 mps 680 mmHg 47%
    10:00 +30°C° 0 mm 4 mps 680 mmHg 42%
    11:00 +33°C° 0 mm 4 mps 680 mmHg 37%
    12:00 +35°C° 0 mm 3 mps 679 mmHg 33%
    13:00 +36°C° 0 mm 2 mps 679 mmHg 29%
    14:00 +38°C° 0 mm 2 mps 678 mmHg 25%
    15:00 +36°C° 0 mm 2 mps 678 mmHg 28%
    16:00 +35°C° 0 mm 3 mps 677 mmHg 31%
    17:00 +33°C° 0 mm 3 mps 676 mmHg 34%
    18:00 +31°C° 0 mm 3 mps 676 mmHg 36%
    19:00 +30°C° 0 mm 3 mps 676 mmHg 38%
    20:00 +29°C° 0 mm 2 mps 676 mmHg 41%
    21:00 +29°C° 0.2 mm 2 mps 677 mmHg 43%
    22:00 +29°C° 0.2 mm 2 mps 677 mmHg 46%
    23:00 +28°C° 0.2 mm 2 mps 677 mmHg 49%

    Day after tomorrow, 23 January, Thursday

    Time Temperature Precipitation Wind Pressure Humidity
    00:00 +28°C° 0 mm 3 mps 677 mmHg 50%
    01:00 +27°C° 0 mm 4 mps 676 mmHg 51%
    02:00 +27°C° 0 mm 4 mps 676 mmHg 52%
    03:00 +26°C° 0 mm 4 mps 676 mmHg 54%
    04:00 +26°C° 0 mm 3 mps 676 mmHg 56%
    05:00 +25°C° 0 mm 3 mps 676 mmHg 58%
    06:00 +26°C° 0 mm 3 mps 677 mmHg 56%
    07:00 +27°C° 0 mm 3 mps 678 mmHg 54%
    08:00 +28°C° 0 mm 3 mps 678 mmHg 52%
    09:00 +30°C° 0 mm 3 mps 678 mmHg 45%
    10:00 +34°C° 0 mm 3 mps 679 mmHg 38%
    11:00 +36°C° 0 mm 2 mps 679 mmHg 31%
    12:00 +37°C° 0 mm 2 mps 678 mmHg 29%
    13:00 +37°C° 0 mm 2 mps 678 mmHg 26%
    14:00 +37°C° 0 mm 1 mps 678 mmHg 23%
    15:00 +37°C° 0.2 mm 3 mps 677 mmHg 27%
    16:00 +35°C° 0.2 mm 4 mps 677 mmHg 31%
    17:00 +33°C° 0.2 mm 5 mps 677 mmHg 35%
    18:00 +32°C° 0.1 mm 5 mps 677 mmHg 41%
    19:00 +29°C° 0.1 mm 5 mps 678 mmHg 48%
    20:00 +27°C° 0.1 mm 4 mps 678 mmHg 54%
    21:00 +27°C° 0.1 mm 4 mps 679 mmHg 58%
    22:00 +26°C° 0.1 mm 3 mps 679 mmHg 61%
    23:00 +25°C° 0.1 mm 3 mps 679 mmHg 65%

    24 January, Friday

    Time Temperature Precipitation Wind Pressure Humidity
    00:00 +25°C° 0.6 mm 3 mps 679 mmHg 70%
    01:00 +24°C° 0.6 mm 3 mps 679 mmHg 74%
    02:00 +22°C° 0.6 mm 3 mps 679 mmHg 79%
    03:00 +22°C° 1.3 mm 3 mps 679 mmHg 82%
    04:00 +21°C° 1.3 mm 3 mps 679 mmHg 85%
    05:00 +21°C° 1.3 mm 3 mps 679 mmHg 88%
    06:00 +21°C° 1.6 mm 4 mps 679 mmHg 87%
    07:00 +22°C° 1.6 mm 5 mps 680 mmHg 85%
    08:00 +22°C° 1.6 mm 5 mps 680 mmHg 84%
    09:00 +22°C° 0.4 mm 6 mps 680 mmHg 81%
    10:00 +23°C° 0.4 mm 6 mps 681 mmHg 79%
    11:00 +23°C° 0.4 mm 7 mps 681 mmHg 76%
    12:00 +24°C° 0 mm 6 mps 680 mmHg 71%
    13:00 +26°C° 0 mm 6 mps 680 mmHg 67%
    14:00 +27°C° 0 mm 5 mps 680 mmHg 62%
    15:00 +27°C° 0.4 mm 4 mps 679 mmHg 63%
    16:00 +27°C° 0.4 mm 3 mps 679 mmHg 65%
    17:00 +27°C° 0.4 mm 2 mps 679 mmHg 66%
    18:00 +26°C° 0.9 mm 2 mps 679 mmHg 71%
    19:00 +25°C° 0.9 mm 2 mps 679 mmHg 77%
    20:00 +24°C° 0.9 mm 2 mps 679 mmHg 82%
    21:00 +23°C° 0.8 mm 2 mps 679 mmHg 84%
    22:00 +21°C° 0.8 mm 2 mps 680 mmHg 85%
    23:00 +21°C° 0.8 mm 2 mps 680 mmHg 87%

    25 January, Saturday

    Time Temperature Precipitation Wind Pressure Humidity
    00:00 +21°C° 0.4 mm 2 mps 680 mmHg 87%
    01:00 +21°C° 0.4 mm 2 mps 680 mmHg 88%
    02:00 +20°C° 0.4 mm 2 mps 679 mmHg 89%
    03:00 +20°C° 1.4 mm 2 mps 679 mmHg 90%
    04:00 +20°C° 1.4 mm 2 mps 679 mmHg 92%
    05:00 +20°C° 1.4 mm 2 mps 679 mmHg 93%
    06:00 +21°C° 0.2 mm 3 mps 679 mmHg 88%
    07:00 +22°C° 0.2 mm 5 mps 680 mmHg 82%
    08:00 +23°C° 0.2 mm 6 mps 680 mmHg 77%
    09:00 +24°C° 0 mm 6 mps 681 mmHg 71%
    10:00 +27°C° 0 mm 6 mps 681 mmHg 65%
    11:00 +29°C° 0 mm 5 mps 681 mmHg 59%
    12:00 +30°C° 0.3 mm 5 mps 681 mmHg 55%
    13:00 +32°C° 0.3 mm 4 mps 680 mmHg 51%
    14:00 +33°C° 0.3 mm 3 mps 680 mmHg 47%
    15:00 +30°C° 1.9 mm 3 mps 679 mmHg 53%
    16:00 +29°C° 1.9 mm 3 mps 678 mmHg 59%
    17:00 +27°C° 1.9 mm 3 mps 678 mmHg 65%
    18:00 +26°C° 2.3 mm 2 mps 678 mmHg 72%
    19:00 +25°C° 2.3 mm 2 mps 678 mmHg 79%
    20:00 +24°C° 2.3 mm 2 mps 678 mmHg 85%
    21:00 +24°C° 0.1 mm 2 mps 678 mmHg 84%
    22:00 +24°C° 0.1 mm 2 mps 679 mmHg 83%
    23:00 +24°C° 0.1 mm 2 mps 679 mmHg 83%

    26 January, Sunday

    Time Temperature Precipitation Wind Pressure Humidity
    00:00 +23°C° 0 mm 2 mps 679 mmHg 85%
    01:00 +23°C° 0 mm 2 mps 679 mmHg 87%
    02:00 +21°C° 0 mm 2 mps 678 mmHg 89%
    03:00 +21°C° 0 mm 2 mps 678 mmHg 89%
    04:00 +21°C° 0 mm 2 mps 679 mmHg 89%
    05:00 +21°C° 0 mm 2 mps 679 mmHg 89%
    06:00 +22°C° 0 mm 3 mps 679 mmHg 84%
    07:00 +25°C° 0 mm 4 mps 679 mmHg 78%
    08:00 +26°C° 0 mm 5 mps 680 mmHg 72%
    09:00 +28°C° 0 mm 5 mps 680 mmHg 63%
    10:00 +30°C° 0 mm 4 mps 680 mmHg 55%
    11:00 +33°C° 0 mm 4 mps 681 mmHg 46%
    12:00 +34°C° 0 mm 3 mps 680 mmHg 41%
    13:00 +35°C° 0 mm 3 mps 680 mmHg 37%
    14:00 +37°C° 0 mm 3 mps 680 mmHg 33%
    15:00 +35°C° 0.2 mm 3 mps 679 mmHg 39%
    16:00 +33°C° 0.2 mm 4 mps 678 mmHg 45%
    17:00 +30°C° 0.2 mm 4 mps 678 mmHg 51%
    18:00 +29°C° 0.3 mm 4 mps 678 mmHg 55%
    19:00 +28°C° 0.3 mm 3 mps 678 mmHg 59%
    20:00 +27°C° 0.3 mm 3 mps 679 mmHg 62%
    21:00 +27°C° 0.2 mm 2 mps 679 mmHg 65%
    22:00 +26°C° 0.2 mm 2 mps 679 mmHg 68%
    23:00 +26°C° 0.2 mm 1 mps 679 mmHg 71%
    Show more